Time,TemperatureF,DewpointF,PressureIn,WindDirection,WindDirectionDegrees,WindSpeedMPH,WindSpeedGustMPH,Humidity,HourlyPrecipIn,Conditions,Clouds,dailyrainin,SoftwareType,DateUTC
2013-01-16 00:00:00,17.2,13.5,30.18,West,277,1.0,2.0,85,0.00,,---,0.00,VWS V14.01,2013-01-16 06:00:00,
2013-01-16 00:04:00,19.0,14.7,30.18,West,275,4.0,4.0,83,0.00,,---,0.00,VWS V14.01,2013-01-16 06:04:00,
2013-01-16 00:09:00,18.9,14.6,30.18,West,275,3.0,4.0,83,0.00,,---,0.00,VWS V14.01,2013-01-16 06:09:00,
2013-01-16 00:14:00,18.9,14.6,30.18,West,275,3.0,4.0,83,0.00,,---,0.00,VWS V14.01,2013-01-16 06:14:00,
2013-01-16 00:19:00,18.7,14.4,30.17,West,277,1.0,4.0,83,0.00,,---,0.00,VWS V14.01,2013-01-16 06:19:00,
2013-01-16 00:24:00,18.4,14.1,30.17,West,277,0.0,4.0,83,0.00,,---,0.00,VWS V14.01,2013-01-16 06:24:00,
2013-01-16 00:29:00,18.2,13.9,30.17,West,277,1.0,2.0,83,0.00,,---,0.00,VWS V14.01,2013-01-16 06:29:00,
2013-01-16 00:30:00,18.3,14.3,30.18,West,273,4.0,4.0,84,0.00,,---,0.00,VWS V14.01,2013-01-16 06:30:00,
2013-01-16 00:34:00,17.9,13.6,30.17,West,277,0.0,2.0,83,0.00,,---,0.00,VWS V14.01,2013-01-16 06:34:00,
2013-01-16 00:39:00,17.7,13.4,30.17,West,277,0.0,2.0,83,0.00,,---,0.00,VWS V14.01,2013-01-16 06:39:00,
2013-01-16 00:44:00,17.5,13.5,30.17,West,277,0.0,2.0,84,0.00,,---,0.00,VWS V14.01,2013-01-16 06:44:00,
2013-01-16 00:49:00,17.3,13.0,30.18,West,277,0.0,2.0,83,0.00,,---,0.00,VWS V14.01,2013-01-16 06:49:00,
2013-01-16 00:54:00,17.1,13.1,30.18,West,277,0.0,2.0,84,0.00,,---,0.00,VWS V14.01,2013-01-16 06:54:00,
2013-01-16 00:59:00,17.3,13.6,30.18,West,277,2.0,2.0,85,0.00,,---,0.00,VWS V14.01,2013-01-16 06:59:00,
2013-01-16 01:00:00,17.7,13.4,30.17,West,273,0.0,4.0,83,0.00,,---,0.00,VWS V14.01,2013-01-16 07:00:00,
2013-01-16 01:04:00,17.6,13.9,30.18,West,277,2.0,3.0,85,0.00,,---,0.00,VWS V14.01,2013-01-16 07:04:00,
2013-01-16 01:09:00,17.6,13.9,30.18,West,277,2.0,3.0,85,0.00,,---,0.00,VWS V14.01,2013-01-16 07:09:00,
2013-01-16 01:14:00,17.5,14.0,30.18,West,277,1.0,3.0,86,0.00,,---,0.00,VWS V14.01,2013-01-16 07:14:00,
2013-01-16 01:20:00,17.8,14.1,30.18,West,277,1.0,3.0,85,0.00,,---,0.00,VWS V14.01,2013-01-16 07:20:00,
2013-01-16 01:25:00,18.1,14.1,30.18,West,275,2.0,3.0,84,0.00,,---,0.00,VWS V14.01,2013-01-16 07:25:00,
2013-01-16 01:30:00,18.3,14.3,30.18,West,273,3.0,4.0,84,0.00,,---,0.00,VWS V14.01,2013-01-16 07:30:00,
2013-01-16 01:35:00,18.1,14.1,30.18,West,273,3.0,4.0,84,0.00,,---,0.00,VWS V14.01,2013-01-16 07:35:00,
2013-01-16 01:40:00,17.8,13.8,30.18,West,273,1.0,4.0,84,0.00,,---,0.00,VWS V14.01,2013-01-16 07:40:00,
2013-01-16 01:45:00,17.8,13.8,30.18,West,273,1.0,4.0,84,0.00,,---,0.00,VWS V14.01,2013-01-16 07:45:00,
2013-01-16 01:50:00,17.9,13.6,30.17,West,273,0.0,4.0,83,0.00,,---,0.00,VWS V14.01,2013-01-16 07:50:00,
2013-01-16 01:55:00,17.9,13.6,30.17,West,273,0.0,4.0,83,0.00,,---,0.00,VWS V14.01,2013-01-16 07:55:00,
2013-01-16 02:00:00,17.8,13.5,30.17,West,273,0.0,0.0,83,0.00,,---,0.00,VWS V14.01,2013-01-16 08:00:00,
2013-01-16 02:05:00,17.9,13.6,30.17,West,273,0.0,0.0,83,0.00,,---,0.00,VWS V14.01,2013-01-16 08:05:00,
2013-01-16 02:10:00,17.9,13.6,30.17,West,273,0.0,0.0,83,0.00,,---,0.00,VWS V14.01,2013-01-16 08:10:00,
2013-01-16 02:15:00,17.6,13.3,30.17,West,273,0.0,0.0,83,0.00,,---,0.00,VWS V14.01,2013-01-16 08:15:00,
2013-01-16 02:20:00,17.6,13.3,30.17,West,273,0.0,1.0,83,0.00,,---,0.00,VWS V14.01,2013-01-16 08:20:00,
2013-01-16 02:25:00,17.5,13.2,30.17,WSW,257,0.0,1.0,83,0.00,,---,0.00,VWS V14.01,2013-01-16 08:25:00,
2013-01-16 02:30:00,17.4,13.4,30.17,WSW,242,0.0,0.0,84,0.00,,---,0.00,VWS V14.01,2013-01-16 08:30:00,
2013-01-16 02:35:00,17.4,13.4,30.17,WSW,240,0.0,3.0,84,0.00,,---,0.00,VWS V14.01,2013-01-16 08:35:00,
2013-01-16 02:40:00,17.4,13.1,30.16,WSW,240,0.0,3.0,83,0.00,,---,0.00,VWS V14.01,2013-01-16 08:40:00,
2013-01-16 02:45:00,17.4,13.1,30.16,WSW,240,0.0,3.0,83,0.00,,---,0.00,VWS V14.01,2013-01-16 08:45:00,
2013-01-16 02:50:00,17.2,12.9,30.16,WSW,240,1.0,3.0,83,0.00,,---,0.00,VWS V14.01,2013-01-16 08:50:00,
2013-01-16 02:56:00,17.1,13.1,30.16,WSW,240,0.0,3.0,84,0.00,,---,0.00,VWS V14.01,2013-01-16 08:56:00,
2013-01-16 03:00:00,16.3,12.6,30.13,SW,234,1.0,4.0,85,0.00,,---,0.00,VWS V14.01,2013-01-16 09:00:00,
2013-01-16 03:01:00,16.9,12.9,30.16,WSW,240,0.0,0.0,84,0.00,,---,0.00,VWS V14.01,2013-01-16 09:01:00,
2013-01-16 03:06:00,16.7,13.0,30.15,WSW,240,0.0,0.0,85,0.00,,---,0.00,VWS V14.01,2013-01-16 09:06:00,
2013-01-16 03:11:00,16.5,12.8,30.15,WSW,240,0.0,0.0,85,0.00,,---,0.00,VWS V14.01,2013-01-16 09:11:00,
2013-01-16 03:16:00,16.5,12.8,30.15,WSW,240,2.0,2.0,85,0.00,,---,0.00,VWS V14.01,2013-01-16 09:16:00,
2013-01-16 03:21:00,16.3,12.6,30.15,WSW,240,2.0,2.0,85,0.00,,---,0.00,VWS V14.01,2013-01-16 09:21:00,
2013-01-16 03:26:00,16.2,12.5,30.15,WSW,241,1.0,3.0,85,0.00,,---,0.00,VWS V14.01,2013-01-16 09:26:00,
2013-01-16 03:30:00,17.1,12.8,30.12,SW,227,1.0,4.0,83,0.00,,---,0.00,VWS V14.01,2013-01-16 09:30:00,
2013-01-16 03:31:00,15.8,12.1,30.15,WSW,241,1.0,3.0,85,0.00,,---,0.00,VWS V14.01,2013-01-16 09:31:00,
2013-01-16 03:36:00,15.6,11.9,30.15,WSW,240,1.0,3.0,85,0.00,,---,0.00,VWS V14.01,2013-01-16 09:36:00,
2013-01-16 03:41:00,15.5,12.1,30.14,WSW,240,1.0,3.0,86,0.00,,---,0.00,VWS V14.01,2013-01-16 09:41:00,
2013-01-16 03:46:00,15.5,12.1,30.14,WSW,240,0.0,3.0,86,0.00,,---,0.00,VWS V14.01,2013-01-16 09:46:00,
2013-01-16 03:51:00,15.9,12.5,30.14,WSW,237,3.0,3.0,86,0.00,,---,0.00,VWS V14.01,2013-01-16 09:51:00,
2013-01-16 03:56:00,16.2,12.5,30.13,SW,233,2.0,3.0,85,0.00,,---,0.00,VWS V14.01,2013-01-16 09:56:00,
2013-01-16 04:00:00,17.1,12.8,30.10,SW,229,0.0,4.0,83,0.00,,---,0.00,VWS V14.01,2013-01-16 10:00:00,
2013-01-16 04:01:00,16.5,12.8,30.13,SW,233,1.0,4.0,85,0.00,,---,0.00,VWS V14.01,2013-01-16 10:01:00,
2013-01-16 04:06:00,16.7,12.7,30.13,SW,230,2.0,4.0,84,0.00,,---,0.00,VWS V14.01,2013-01-16 10:06:00,
2013-01-16 04:12:00,16.9,12.6,30.12,SW,230,2.0,4.0,83,0.00,,---,0.00,VWS V14.01,2013-01-16 10:12:00,
2013-01-16 04:17:00,17.0,12.7,30.12,SW,228,0.0,4.0,83,0.00,,---,0.00,VWS V14.01,2013-01-16 10:17:00,
2013-01-16 04:22:00,17.0,12.7,30.12,SW,226,2.0,4.0,83,0.00,,---,0.00,VWS V14.01,2013-01-16 10:22:00,
2013-01-16 04:27:00,17.1,12.8,30.12,SW,228,1.0,4.0,83,0.00,,---,0.00,VWS V14.01,2013-01-16 10:27:00,
2013-01-16 04:30:00,17.1,12.8,30.08,SSW,211,0.0,2.0,83,0.00,,---,0.00,VWS V14.01,2013-01-16 10:30:00,
2013-01-16 04:32:00,17.1,12.6,30.11,SW,223,0.0,2.0,82,0.00,,---,0.00,VWS V14.01,2013-01-16 10:32:00,
2013-01-16 04:37:00,17.2,12.7,30.11,SW,222,0.0,2.0,82,0.00,,---,0.00,VWS V14.01,2013-01-16 10:37:00,
2013-01-16 04:42:00,17.2,12.7,30.11,SW,236,2.0,3.0,82,0.00,,---,0.00,VWS V14.01,2013-01-16 10:42:00,
2013-01-16 04:47:00,17.1,12.6,30.10,SW,232,2.0,4.0,82,0.00,,---,0.00,VWS V14.01,2013-01-16 10:47:00,
2013-01-16 04:52:00,17.1,12.6,30.10,SW,236,1.0,4.0,82,0.00,,---,0.00,VWS V14.01,2013-01-16 10:52:00,
2013-01-16 04:57:00,17.1,12.8,30.10,SW,229,0.0,4.0,83,0.00,,---,0.00,VWS V14.01,2013-01-16 10:57:00,
2013-01-16 05:00:00,17.0,12.7,30.10,WSW,247,5.0,5.0,83,0.00,,---,0.00,VWS V14.01,2013-01-16 11:00:00,
2013-01-16 05:02:00,17.0,12.5,30.11,SW,229,1.0,2.0,82,0.00,,---,0.00,VWS V14.01,2013-01-16 11:02:00,
2013-01-16 05:07:00,17.0,12.7,30.10,SW,229,0.0,2.0,83,0.00,,---,0.00,VWS V14.01,2013-01-16 11:07:00,
2013-01-16 05:12:00,16.9,12.6,30.10,SW,229,0.0,2.0,83,0.00,,---,0.00,VWS V14.01,2013-01-16 11:12:00,
2013-01-16 05:18:00,16.9,12.6,30.10,SW,231,1.0,2.0,83,0.00,,---,0.00,VWS V14.01,2013-01-16 11:18:00,
2013-01-16 05:23:00,17.0,12.7,30.09,SSW,213,1.0,2.0,83,0.00,,---,0.00,VWS V14.01,2013-01-16 11:23:00,
2013-01-16 05:28:00,17.1,12.8,30.08,SSW,211,0.0,2.0,83,0.00,,---,0.00,VWS V14.01,2013-01-16 11:28:00,
2013-01-16 05:30:00,17.1,12.8,30.09,SW,227,2.0,6.0,83,0.00,,---,0.00,VWS V14.01,2013-01-16 11:30:00,
2013-01-16 05:33:00,17.0,12.5,30.08,SW,235,1.0,3.0,82,0.00,,---,0.00,VWS V14.01,2013-01-16 11:33:00,
2013-01-16 05:38:00,16.9,12.6,30.08,SW,227,0.0,3.0,83,0.00,,---,0.00,VWS V14.01,2013-01-16 11:38:00,
2013-01-16 05:43:00,16.9,12.6,30.09,SW,234,2.0,4.0,83,0.00,,---,0.00,VWS V14.01,2013-01-16 11:43:00,
2013-01-16 05:48:00,16.9,12.6,30.09,SW,233,2.0,4.0,83,0.00,,---,0.00,VWS V14.01,2013-01-16 11:48:00,
2013-01-16 05:53:00,16.9,12.6,30.10,SW,236,1.0,4.0,83,0.00,,---,0.00,VWS V14.01,2013-01-16 11:53:00,
2013-01-16 05:58:00,17.0,12.7,30.10,WSW,244,4.0,5.0,83,0.00,,---,0.00,VWS V14.01,2013-01-16 11:58:00,
2013-01-16 06:00:00,17.5,12.7,30.09,SW,228,2.0,5.0,81,0.00,,---,0.00,VWS V14.01,2013-01-16 12:00:00,
2013-01-16 06:03:00,16.8,12.5,30.10,WSW,242,2.0,5.0,83,0.00,,---,0.00,VWS V14.01,2013-01-16 12:03:00,
2013-01-16 06:08:00,16.7,12.4,30.09,WSW,242,0.0,5.0,83,0.00,,---,0.00,VWS V14.01,2013-01-16 12:08:00,
2013-01-16 06:13:00,16.6,12.4,30.09,SW,236,3.0,5.0,83,0.00,,---,0.00,VWS V14.01,2013-01-16 12:13:00,
2013-01-16 06:18:00,16.7,12.4,30.09,SW,229,2.0,5.0,83,0.00,,---,0.00,VWS V14.01,2013-01-16 12:18:00,
2013-01-16 06:23:00,16.9,12.6,30.09,SW,232,2.0,6.0,83,0.00,,---,0.00,VWS V14.01,2013-01-16 12:23:00,
2013-01-16 06:28:00,17.1,12.8,30.09,SW,227,2.0,6.0,83,0.00,,---,0.00,VWS V14.01,2013-01-16 12:28:00,
2013-01-16 06:30:00,16.6,12.1,30.07,South,184,4.0,6.0,82,0.00,,---,0.00,VWS V14.01,2013-01-16 12:30:00,
2013-01-16 06:33:00,17.2,12.7,30.09,SW,230,3.0,5.0,82,0.00,,---,0.00,VWS V14.01,2013-01-16 12:33:00,
2013-01-16 06:38:00,17.3,12.8,30.09,SW,232,1.0,5.0,82,0.00,,---,0.00,VWS V14.01,2013-01-16 12:38:00,
2013-01-16 06:44:00,17.4,12.9,30.09,SW,225,3.0,5.0,82,0.00,,---,0.00,VWS V14.01,2013-01-16 12:44:00,
2013-01-16 06:49:00,17.5,12.7,30.09,SW,235,1.0,5.0,81,0.00,,---,0.00,VWS V14.01,2013-01-16 12:49:00,
2013-01-16 06:54:00,17.5,12.7,30.09,SW,235,1.0,5.0,81,0.00,,---,0.00,VWS V14.01,2013-01-16 12:54:00,
2013-01-16 06:59:00,17.5,12.7,30.09,SW,222,0.0,2.0,81,0.00,,---,0.00,VWS V14.01,2013-01-16 12:59:00,
2013-01-16 07:00:00,17.7,12.9,30.07,South,190,5.0,6.0,81,0.00,,---,0.00,VWS V14.01,2013-01-16 13:00:00,
2013-01-16 07:04:00,17.5,12.7,30.08,SSW,207,1.0,2.0,81,0.00,,---,0.00,VWS V14.01,2013-01-16 13:04:00,
2013-01-16 07:09:00,17.5,12.7,30.08,South,189,0.0,4.0,81,0.00,,---,0.00,VWS V14.01,2013-01-16 13:09:00,
2013-01-16 07:14:00,17.3,12.5,30.08,South,190,3.0,4.0,81,0.00,,---,0.00,VWS V14.01,2013-01-16 13:14:00,
2013-01-16 07:20:00,17.1,12.6,30.08,South,180,3.0,4.0,82,0.00,,---,0.00,VWS V14.01,2013-01-16 13:20:00,
2013-01-16 07:25:00,16.8,12.3,30.08,South,185,2.0,5.0,82,0.00,,---,0.00,VWS V14.01,2013-01-16 13:25:00,
2013-01-16 07:30:00,16.6,12.1,30.07,South,185,3.0,4.0,82,0.00,,---,0.00,VWS V14.01,2013-01-16 13:30:00,
2013-01-16 07:35:00,16.6,12.4,30.07,South,180,5.0,5.0,83,0.00,,---,0.00,VWS V14.01,2013-01-16 13:35:00,
2013-01-16 07:40:00,16.6,12.4,30.07,South,179,2.0,5.0,83,0.00,,---,0.00,VWS V14.01,2013-01-16 13:40:00,
2013-01-16 07:45:00,16.8,12.5,30.07,South,182,3.0,6.0,83,0.00,,---,0.00,VWS V14.01,2013-01-16 13:45:00,
2013-01-16 07:50:00,17.1,12.8,30.07,South,178,1.0,6.0,83,0.00,,---,0.00,VWS V14.01,2013-01-16 13:50:00,
2013-01-16 07:55:00,17.5,12.9,30.07,SSW,197,1.0,6.0,82,0.00,,---,0.00,VWS V14.01,2013-01-16 13:55:00,
2013-01-16 08:00:00,17.8,13.2,30.08,SSW,194,4.0,5.0,82,0.00,,---,0.00,VWS V14.01,2013-01-16 14:00:00,
2013-01-16 08:05:00,18.1,13.3,30.08,South,189,4.0,6.0,81,0.00,,---,0.00,VWS V14.01,2013-01-16 14:05:00,
2013-01-16 08:10:00,18.2,13.4,30.08,SSW,192,1.0,6.0,81,0.00,,---,0.00,VWS V14.01,2013-01-16 14:10:00,
2013-01-16 08:15:00,18.7,13.9,30.08,SW,234,4.0,6.0,81,0.00,,---,0.00,VWS V14.01,2013-01-16 14:15:00,
2013-01-16 08:20:00,19.0,13.9,30.08,SSW,209,0.0,6.0,80,0.00,,---,0.00,VWS V14.01,2013-01-16 14:20:00,
2013-01-16 08:25:00,19.4,14.2,30.08,South,187,4.0,6.0,80,0.00,,---,0.00,VWS V14.01,2013-01-16 14:25:00,
2013-01-16 08:30:00,19.7,14.3,30.08,South,190,1.0,4.0,79,0.00,,---,0.00,VWS V14.01,2013-01-16 14:30:00,
2013-01-16 08:35:00,20.1,14.6,30.08,SSW,196,1.0,7.0,79,0.00,,---,0.00,VWS V14.01,2013-01-16 14:35:00,
2013-01-16 08:41:00,20.6,14.8,30.08,SSW,198,2.0,7.0,78,0.00,,---,0.00,VWS V14.01,2013-01-16 14:41:00,
2013-01-16 08:46:00,21.1,15.0,30.08,SSW,194,2.0,7.0,77,0.00,,---,0.00,VWS V14.01,2013-01-16 14:46:00,
2013-01-16 08:51:00,21.5,15.1,30.08,SSW,192,1.0,7.0,76,0.00,,---,0.00,VWS V14.01,2013-01-16 14:51:00,
2013-01-16 08:56:00,21.9,15.5,30.08,SSW,196,1.0,7.0,76,0.00,,---,0.00,VWS V14.01,2013-01-16 14:56:00,
2013-01-16 09:00:00,26.8,18.0,30.06,WSW,239,5.0,12.0,69,0.00,,---,0.00,VWS V14.01,2013-01-16 15:00:00,
2013-01-16 09:01:00,22.3,15.6,30.08,South,191,3.0,4.0,75,0.00,,---,0.00,VWS V14.01,2013-01-16 15:01:00,
2013-01-16 09:06:00,22.8,16.1,30.08,South,190,5.0,8.0,75,0.00,,---,0.00,VWS V14.01,2013-01-16 15:06:00,
2013-01-16 09:11:00,23.4,16.4,30.07,SW,217,4.0,10.0,74,0.00,,---,0.00,VWS V14.01,2013-01-16 15:11:00,
2013-01-16 09:16:00,23.8,16.4,30.08,South,190,1.0,10.0,73,0.00,,---,0.00,VWS V14.01,2013-01-16 15:16:00,
2013-01-16 09:21:00,24.2,16.8,30.07,SSW,204,3.0,10.0,73,0.00,,---,0.00,VWS V14.01,2013-01-16 15:21:00,
2013-01-16 09:27:00,24.6,16.9,30.07,SSW,202,2.0,10.0,72,0.00,,---,0.00,VWS V14.01,2013-01-16 15:27:00,
2013-01-16 09:30:00,29.0,19.4,30.05,WSW,250,7.0,12.0,67,0.00,,---,0.00,VWS V14.01,2013-01-16 15:30:00,
2013-01-16 09:32:00,24.8,16.8,30.07,South,180,3.0,10.0,71,0.00,,---,0.00,VWS V14.01,2013-01-16 15:32:00,
2013-01-16 09:36:00,25.1,17.0,30.07,WNW,292,6.0,10.0,71,0.00,,---,0.00,VWS V14.01,2013-01-16 15:36:00,
2013-01-16 09:42:00,25.4,17.0,30.07,SW,228,4.0,11.0,70,0.00,,---,0.00,VWS V14.01,2013-01-16 15:42:00,
2013-01-16 09:47:00,25.9,17.5,30.06,West,271,8.0,11.0,70,0.00,,---,0.00,VWS V14.01,2013-01-16 15:47:00,
2013-01-16 09:52:00,26.3,17.2,30.06,West,261,6.0,12.0,68,0.00,,---,0.00,VWS V14.01,2013-01-16 15:52:00,
2013-01-16 09:57:00,26.7,17.9,30.06,West,261,7.0,12.0,69,0.00,,---,0.00,VWS V14.01,2013-01-16 15:57:00,
2013-01-16 10:00:00,31.1,20.0,30.04,SW,216,2.0,22.0,63,0.00,,---,0.00,VWS V14.01,2013-01-16 16:00:00,
2013-01-16 10:02:00,27.1,18.0,30.06,SSW,197,2.0,11.0,68,0.00,,---,0.00,VWS V14.01,2013-01-16 16:02:00,
2013-01-16 10:07:00,27.4,18.2,30.06,SSW,196,2.0,11.0,68,0.00,,---,0.00,VWS V14.01,2013-01-16 16:07:00,
2013-01-16 10:12:00,27.8,18.6,30.07,SW,225,4.0,11.0,68,0.00,,---,0.00,VWS V14.01,2013-01-16 16:12:00,
2013-01-16 10:18:00,28.0,18.5,30.06,SW,234,4.0,11.0,67,0.00,,---,0.00,VWS V14.01,2013-01-16 16:18:00,
2013-01-16 10:23:00,28.5,19.3,30.06,WSW,244,6.0,11.0,68,0.00,,---,0.00,VWS V14.01,2013-01-16 16:23:00,
2013-01-16 10:28:00,28.9,19.0,30.05,South,190,2.0,12.0,66,0.00,,---,0.00,VWS V14.01,2013-01-16 16:28:00,
2013-01-16 10:30:00,32.3,21.5,30.03,NNE,29,5.0,14.0,64,0.00,,---,0.00,VWS V14.01,2013-01-16 16:30:00,
2013-01-16 10:33:00,29.3,19.4,30.05,WNW,290,7.0,11.0,66,0.00,,---,0.00,VWS V14.01,2013-01-16 16:33:00,
2013-01-16 10:38:00,29.7,19.4,30.04,SSW,205,3.0,14.0,65,0.00,,---,0.00,VWS V14.01,2013-01-16 16:38:00,
2013-01-16 10:43:00,30.1,19.8,30.04,NNW,342,4.0,14.0,65,0.00,,---,0.00,VWS V14.01,2013-01-16 16:43:00,
2013-01-16 10:48:00,30.6,20.2,30.04,SW,221,3.0,14.0,65,0.00,,---,0.00,VWS V14.01,2013-01-16 16:48:00,
2013-01-16 10:53:00,30.8,20.1,30.04,SW,234,11.0,14.0,64,0.00,,---,0.00,VWS V14.01,2013-01-16 16:53:00,
2013-01-16 10:58:00,31.1,20.0,30.04,SW,216,2.0,22.0,63,0.00,,---,0.00,VWS V14.01,2013-01-16 16:58:00,
2013-01-16 11:00:00,34.4,22.0,30.00,WSW,252,6.0,22.0,60,0.00,,---,0.00,VWS V14.01,2013-01-16 17:00:00,
2013-01-16 11:03:00,31.6,20.8,30.04,SW,215,2.0,7.0,64,0.00,,---,0.00,VWS V14.01,2013-01-16 17:03:00,
2013-01-16 11:09:00,31.6,20.5,30.03,WSW,246,10.0,14.0,63,0.00,,---,0.00,VWS V14.01,2013-01-16 17:09:00,
2013-01-16 11:14:00,31.9,20.8,30.03,WSW,254,5.0,14.0,63,0.00,,---,0.00,VWS V14.01,2013-01-16 17:14:00,
2013-01-16 11:19:00,31.9,21.1,30.03,SW,229,8.0,14.0,64,0.00,,---,0.00,VWS V14.01,2013-01-16 17:19:00,
2013-01-16 11:24:00,32.1,21.7,30.03,SSW,205,3.0,14.0,65,0.00,,---,0.00,VWS V14.01,2013-01-16 17:24:00,
2013-01-16 11:29:00,32.4,21.2,30.02,SW,228,10.0,10.0,63,0.00,,---,0.00,VWS V14.01,2013-01-16 17:29:00,
2013-01-16 11:30:00,32.3,21.5,30.03,NNE,29,5.0,14.0,64,0.00,,---,0.00,VWS V14.01,2013-01-16 17:30:00,
2013-01-16 11:34:00,32.8,21.6,30.02,SW,236,13.0,16.0,63,0.00,,---,0.00,VWS V14.01,2013-01-16 17:34:00,
2013-01-16 11:39:00,33.1,21.1,30.02,North,5,11.0,22.0,61,0.00,,---,0.00,VWS V14.01,2013-01-16 17:39:00,
2013-01-16 11:44:00,33.5,22.3,30.01,SW,236,5.0,22.0,63,0.00,,---,0.00,VWS V14.01,2013-01-16 17:44:00,
2013-01-16 11:50:00,33.8,21.8,30.01,SW,232,13.0,22.0,61,0.00,,---,0.00,VWS V14.01,2013-01-16 17:50:00,
2013-01-16 11:55:00,34.2,22.5,30.00,WSW,238,12.0,22.0,62,0.00,,---,0.00,VWS V14.01,2013-01-16 17:55:00,
2013-01-16 12:00:00,34.4,22.7,30.00,SW,220,6.0,10.0,62,0.00,,---,0.00,VWS V14.01,2013-01-16 18:00:00,
2013-01-16 12:05:00,34.7,22.2,29.99,WSW,238,12.0,19.0,60,0.00,,---,0.00,VWS V14.01,2013-01-16 18:05:00,
2013-01-16 12:10:00,34.9,22.8,29.99,WSW,246,5.0,19.0,61,0.00,,---,0.00,VWS V14.01,2013-01-16 18:10:00,
2013-01-16 12:15:00,35.0,22.5,29.98,WSW,238,12.0,19.0,60,0.00,,---,0.00,VWS V14.01,2013-01-16 18:15:00,
2013-01-16 12:20:00,35.3,22.4,29.98,SW,234,17.0,22.0,59,0.00,,---,0.00,VWS V14.01,2013-01-16 18:20:00,
2013-01-16 12:25:00,35.4,22.5,29.98,SW,221,6.0,22.0,59,0.00,,---,0.00,VWS V14.01,2013-01-16 18:25:00,
2013-01-16 12:30:00,35.5,22.6,29.98,SSW,213,2.0,8.0,59,0.00,,---,0.00,VWS V14.01,2013-01-16 18:30:00,
2013-01-16 12:35:00,35.9,23.4,29.98,NNW,344,7.0,15.0,60,0.00,,---,0.00,VWS V14.01,2013-01-16 18:35:00,
2013-01-16 12:40:00,36.2,23.3,29.98,SW,234,4.0,15.0,59,0.00,,---,0.00,VWS V14.01,2013-01-16 18:40:00,
2013-01-16 12:45:00,36.6,23.6,29.98,South,185,11.0,16.0,59,0.00,,---,0.00,VWS V14.01,2013-01-16 18:45:00,
2013-01-16 12:50:00,36.8,23.8,29.97,West,260,6.0,16.0,59,0.00,,---,0.00,VWS V14.01,2013-01-16 18:50:00,
2013-01-16 12:56:00,36.9,23.1,29.97,SW,234,12.0,20.0,57,0.00,,---,0.00,VWS V14.01,2013-01-16 18:56:00,
2013-01-16 13:00:00,38.2,22.6,29.94,WSW,257,9.0,19.0,53,0.00,,---,0.00,VWS V14.01,2013-01-16 19:00:00,
2013-01-16 13:01:00,37.0,22.8,29.97,South,186,4.0,17.0,56,0.00,,---,0.00,VWS V14.01,2013-01-16 19:01:00,
2013-01-16 13:06:00,37.3,23.1,29.97,WSW,239,11.0,17.0,56,0.00,,---,0.00,VWS V14.01,2013-01-16 19:06:00,
2013-01-16 13:11:00,37.3,22.6,29.96,NNE,17,17.0,26.0,55,0.00,,---,0.00,VWS V14.01,2013-01-16 19:11:00,
2013-01-16 13:16:00,37.4,23.6,29.96,SSW,213,4.0,26.0,57,0.00,,---,0.00,VWS V14.01,2013-01-16 19:16:00,
2013-01-16 13:21:00,37.7,23.4,29.96,SSW,195,4.0,26.0,56,0.00,,---,0.00,VWS V14.01,2013-01-16 19:21:00,
2013-01-16 13:26:00,37.7,23.0,29.95,SSW,203,4.0,26.0,55,0.00,,---,0.00,VWS V14.01,2013-01-16 19:26:00,
2013-01-16 13:30:00,38.2,23.5,29.96,WSW,244,6.0,19.0,55,0.00,,---,0.00,VWS V14.01,2013-01-16 19:30:00,
2013-01-16 13:32:00,37.9,23.2,29.94,SW,227,6.0,16.0,55,0.00,,---,0.00,VWS V14.01,2013-01-16 19:32:00,
2013-01-16 13:37:00,38.1,23.4,29.94,SSW,195,5.0,16.0,55,0.00,,---,0.00,VWS V14.01,2013-01-16 19:37:00,
2013-01-16 13:42:00,38.1,22.9,29.95,WSW,238,9.0,16.0,54,0.00,,---,0.00,VWS V14.01,2013-01-16 19:42:00,
2013-01-16 13:47:00,38.3,23.1,29.94,South,190,6.0,19.0,54,0.00,,---,0.00,VWS V14.01,2013-01-16 19:47:00,
2013-01-16 13:52:00,38.5,22.9,29.95,North,350,10.0,19.0,53,0.00,,---,0.00,VWS V14.01,2013-01-16 19:52:00,
2013-01-16 13:57:00,38.2,22.6,29.95,SSW,192,5.0,19.0,53,0.00,,---,0.00,VWS V14.01,2013-01-16 19:57:00,
2013-01-16 14:00:00,37.9,24.0,29.97,SW,230,10.0,17.0,57,0.01,,---,0.01,VWS V14.01,2013-01-16 20:00:00,
2013-01-16 14:02:00,38.5,23.8,29.94,SSW,202,5.0,15.0,55,0.00,,---,0.00,VWS V14.01,2013-01-16 20:02:00,
2013-01-16 14:07:00,38.7,23.5,29.94,WNW,292,11.0,15.0,54,0.00,,---,0.00,VWS V14.01,2013-01-16 20:07:00,
2013-01-16 14:12:00,38.6,23.0,29.95,SW,236,9.0,16.0,53,0.00,,---,0.00,VWS V14.01,2013-01-16 20:12:00,
2013-01-16 14:17:00,38.5,23.3,29.95,SW,232,13.0,19.0,54,0.00,,---,0.00,VWS V14.01,2013-01-16 20:17:00,
2013-01-16 14:23:00,38.3,23.1,29.95,West,269,8.0,19.0,54,0.00,,---,0.00,VWS V14.01,2013-01-16 20:23:00,
2013-01-16 14:28:00,38.2,23.0,29.96,SW,233,6.0,19.0,54,0.00,,---,0.00,VWS V14.01,2013-01-16 20:28:00,
2013-01-16 14:30:00,36.9,24.7,29.99,SW,235,6.0,23.0,61,0.01,,---,0.01,VWS V14.01,2013-01-16 20:30:00,
2013-01-16 14:33:00,38.1,23.8,29.96,SW,233,2.0,16.0,56,0.00,,---,0.00,VWS V14.01,2013-01-16 20:33:00,
2013-01-16 14:38:00,38.1,24.2,29.97,WSW,239,7.0,16.0,57,0.00,,---,0.00,VWS V14.01,2013-01-16 20:38:00,
2013-01-16 14:43:00,38.0,23.7,29.97,SSW,212,2.0,16.0,56,0.00,,---,0.00,VWS V14.01,2013-01-16 20:43:00,
2013-01-16 14:48:00,37.9,24.0,29.97,SW,236,6.0,17.0,57,0.01,,---,0.01,VWS V14.01,2013-01-16 20:48:00,
2013-01-16 14:53:00,37.9,23.6,29.97,NW,313,7.0,17.0,56,0.01,,---,0.01,VWS V14.01,2013-01-16 20:53:00,
2013-01-16 14:58:00,37.9,24.0,29.97,SW,230,10.0,17.0,57,0.01,,---,0.01,VWS V14.01,2013-01-16 20:58:00,
2013-01-16 15:00:00,37.0,25.2,30.00,WSW,237,6.0,25.0,62,0.01,,---,0.01,VWS V14.01,2013-01-16 21:00:00,
2013-01-16 15:03:00,37.8,24.8,29.97,NW,319,10.0,12.0,59,0.01,,---,0.01,VWS V14.01,2013-01-16 21:03:00,
2013-01-16 15:08:00,37.7,24.7,29.97,SW,225,7.0,14.0,59,0.01,,---,0.01,VWS V14.01,2013-01-16 21:08:00,
2013-01-16 15:13:00,37.5,24.1,29.98,West,265,14.0,23.0,58,0.01,,---,0.01,VWS V14.01,2013-01-16 21:13:00,
2013-01-16 15:19:00,37.1,23.7,29.98,SW,228,8.0,23.0,58,0.01,,---,0.01,VWS V14.01,2013-01-16 21:19:00,
2013-01-16 15:24:00,37.0,24.8,29.99,SW,214,6.0,23.0,61,0.01,,---,0.01,VWS V14.01,2013-01-16 21:24:00,
2013-01-16 15:29:00,36.9,24.7,29.99,SW,229,8.0,8.0,61,0.01,,---,0.01,VWS V14.01,2013-01-16 21:29:00,
2013-01-16 15:30:00,37.0,25.6,30.00,SW,233,5.0,14.0,63,0.00,,---,0.01,VWS V14.01,2013-01-16 21:30:00,
2013-01-16 15:34:00,37.0,24.4,30.00,WSW,245,5.0,24.0,60,0.01,,---,0.01,VWS V14.01,2013-01-16 21:34:00,
2013-01-16 15:39:00,37.0,24.4,30.00,SW,226,10.0,25.0,60,0.01,,---,0.01,VWS V14.01,2013-01-16 21:39:00,
2013-01-16 15:44:00,37.0,24.8,30.00,SW,222,3.0,25.0,61,0.01,,---,0.01,VWS V14.01,2013-01-16 21:44:00,
2013-01-16 15:49:00,37.0,24.8,30.00,WSW,240,9.0,25.0,61,0.01,,---,0.01,VWS V14.01,2013-01-16 21:49:00,
2013-01-16 15:54:00,37.0,25.2,30.00,SW,233,6.0,25.0,62,0.01,,---,0.01,VWS V14.01,2013-01-16 21:54:00,
2013-01-16 15:59:00,37.0,25.2,30.01,WSW,247,6.0,7.0,62,0.00,,---,0.01,VWS V14.01,2013-01-16 21:59:00,
2013-01-16 16:00:00,36.8,26.1,30.02,WSW,255,9.0,14.0,65,0.00,,---,0.01,VWS V14.01,2013-01-16 22:00:00,
2013-01-16 16:04:00,37.0,25.2,30.00,SW,221,5.0,13.0,62,0.00,,---,0.01,VWS V14.01,2013-01-16 22:04:00,
2013-01-16 16:09:00,37.0,25.2,30.00,WSW,238,4.0,14.0,62,0.00,,---,0.01,VWS V14.01,2013-01-16 22:09:00,
2013-01-16 16:14:00,37.0,24.8,30.01,WSW,249,8.0,14.0,61,0.00,,---,0.01,VWS V14.01,2013-01-16 22:14:00,
2013-01-16 16:19:00,37.1,24.9,30.00,SW,227,7.0,14.0,61,0.00,,---,0.01,VWS V14.01,2013-01-16 22:19:00,
2013-01-16 16:24:00,37.0,25.2,30.00,SW,219,8.0,14.0,62,0.00,,---,0.01,VWS V14.01,2013-01-16 22:24:00,
2013-01-16 16:29:00,37.0,25.6,30.00,SW,232,3.0,9.0,63,0.00,,---,0.01,VWS V14.01,2013-01-16 22:29:00,
2013-01-16 16:30:00,36.6,26.0,30.03,WSW,246,7.0,15.0,65,0.00,,---,0.01,VWS V14.01,2013-01-16 22:30:00,
2013-01-16 16:34:00,37.0,26.0,30.00,WSW,241,3.0,9.0,64,0.00,,---,0.01,VWS V14.01,2013-01-16 22:34:00,
2013-01-16 16:39:00,36.9,25.9,30.00,SW,234,6.0,10.0,64,0.00,,---,0.01,VWS V14.01,2013-01-16 22:39:00,
2013-01-16 16:44:00,36.9,25.9,30.00,SW,232,7.0,10.0,64,0.00,,---,0.01,VWS V14.01,2013-01-16 22:44:00,
2013-01-16 16:49:00,36.8,26.1,30.01,WSW,238,3.0,12.0,65,0.00,,---,0.01,VWS V14.01,2013-01-16 22:49:00,
2013-01-16 16:54:00,36.8,26.1,30.02,WSW,243,8.0,13.0,65,0.00,,---,0.01,VWS V14.01,2013-01-16 22:54:00,
2013-01-16 17:00:00,36.8,26.1,30.02,SW,236,6.0,9.0,65,0.00,,---,0.01,VWS V14.01,2013-01-16 23:00:00,
2013-01-16 17:05:00,36.8,26.1,30.02,WSW,238,15.0,15.0,65,0.00,,---,0.01,VWS V14.01,2013-01-16 23:05:00,
2013-01-16 17:10:00,36.7,26.1,30.02,WSW,250,6.0,15.0,65,0.00,,---,0.01,VWS V14.01,2013-01-16 23:10:00,
2013-01-16 17:15:00,36.6,26.3,30.03,WSW,238,7.0,15.0,66,0.00,,---,0.01,VWS V14.01,2013-01-16 23:15:00,
2013-01-16 17:20:00,36.6,26.3,30.03,WSW,248,6.0,15.0,66,0.00,,---,0.01,VWS V14.01,2013-01-16 23:20:00,
2013-01-16 17:25:00,36.6,26.3,30.03,WSW,241,6.0,15.0,66,0.00,,---,0.01,VWS V14.01,2013-01-16 23:25:00,
2013-01-16 17:30:00,36.7,26.1,30.03,WSW,245,11.0,16.0,65,0.00,,---,0.01,VWS V14.01,2013-01-16 23:30:00,
2013-01-16 17:35:00,36.8,26.1,30.03,WSW,244,7.0,16.0,65,0.00,,---,0.01,VWS V14.01,2013-01-16 23:35:00,
2013-01-16 17:40:00,36.8,26.1,30.03,WSW,238,6.0,16.0,65,0.00,,---,0.01,VWS V14.01,2013-01-16 23:40:00,
2013-01-16 17:45:00,36.8,26.1,30.03,SW,236,4.0,16.0,65,0.00,,---,0.01,VWS V14.01,2013-01-16 23:45:00,
2013-01-16 17:50:00,36.8,26.1,30.04,WSW,242,11.0,16.0,65,0.00,,---,0.01,VWS V14.01,2013-01-16 23:50:00,
2013-01-16 17:56:00,36.8,26.1,30.04,SW,235,7.0,16.0,65,0.00,,---,0.01,VWS V14.01,2013-01-16 23:56:00,
2013-01-16 18:00:00,36.1,26.6,30.08,SW,231,3.0,12.0,68,0.00,,---,0.01,VWS V14.01,2013-01-17 00:00:00,
2013-01-16 18:01:00,36.8,26.1,30.04,WSW,250,2.0,9.0,65,0.00,,---,0.01,VWS V14.01,2013-01-17 00:01:00,
2013-01-16 18:06:00,36.8,26.1,30.05,SW,234,2.0,10.0,65,0.00,,---,0.01,VWS V14.01,2013-01-17 00:06:00,
2013-01-16 18:11:00,36.8,26.1,30.05,WSW,238,3.0,14.0,65,0.00,,---,0.01,VWS V14.01,2013-01-17 00:11:00,
2013-01-16 18:16:00,36.8,26.1,30.05,West,259,3.0,14.0,65,0.00,,---,0.01,VWS V14.01,2013-01-17 00:16:00,
2013-01-16 18:21:00,36.6,26.3,30.05,WSW,237,6.0,14.0,66,0.00,,---,0.01,VWS V14.01,2013-01-17 00:21:00,
2013-01-16 18:26:00,36.7,26.4,30.06,SW,232,8.0,14.0,66,0.00,,---,0.01,VWS V14.01,2013-01-17 00:26:00,
2013-01-16 18:30:00,36.3,26.8,30.08,WSW,250,5.0,15.0,68,0.00,,---,0.01,VWS V14.01,2013-01-17 00:30:00,
2013-01-16 18:31:00,36.6,26.3,30.06,WSW,240,7.0,8.0,66,0.00,,---,0.01,VWS V14.01,2013-01-17 00:31:00,
2013-01-16 18:36:00,36.5,26.6,30.07,WSW,238,4.0,9.0,67,0.00,,---,0.01,VWS V14.01,2013-01-17 00:36:00,
2013-01-16 18:41:00,36.4,26.5,30.07,SW,234,7.0,11.0,67,0.00,,---,0.01,VWS V14.01,2013-01-17 00:41:00,
2013-01-16 18:46:00,36.3,26.4,30.07,SSW,213,5.0,12.0,67,0.00,,---,0.01,VWS V14.01,2013-01-17 00:46:00,
2013-01-16 18:52:00,36.2,26.3,30.07,WSW,251,7.0,12.0,67,0.00,,---,0.01,VWS V14.01,2013-01-17 00:52:00,
2013-01-16 18:57:00,36.1,26.6,30.08,SSW,202,4.0,12.0,68,0.00,,---,0.01,VWS V14.01,2013-01-17 00:57:00,
2013-01-16 19:00:00,36.6,27.4,30.07,WSW,251,11.0,17.0,69,0.00,,---,0.01,VWS V14.01,2013-01-17 01:00:00,
2013-01-16 19:02:00,36.0,26.5,30.08,SW,233,5.0,9.0,68,0.00,,---,0.01,VWS V14.01,2013-01-17 01:02:00,
2013-01-16 19:07:00,36.0,26.8,30.08,WSW,240,8.0,10.0,69,0.00,,---,0.01,VWS V14.01,2013-01-17 01:07:00,
2013-01-16 19:12:00,36.0,26.5,30.08,SW,233,3.0,15.0,68,0.00,,---,0.01,VWS V14.01,2013-01-17 01:12:00,
2013-01-16 19:17:00,36.2,26.7,30.08,SW,236,4.0,15.0,68,0.00,,---,0.01,VWS V14.01,2013-01-17 01:17:00,
2013-01-16 19:22:00,36.2,26.7,30.08,WSW,239,10.0,15.0,68,0.00,,---,0.01,VWS V14.01,2013-01-17 01:22:00,
2013-01-16 19:27:00,36.3,26.8,30.08,SW,227,3.0,15.0,68,0.00,,---,0.01,VWS V14.01,2013-01-17 01:27:00,
2013-01-16 19:30:00,36.7,28.2,30.09,WSW,248,9.0,17.0,71,0.00,,---,0.01,VWS V14.01,2013-01-17 01:30:00,
2013-01-16 19:32:00,36.4,26.9,30.07,SW,230,5.0,17.0,68,0.00,,---,0.01,VWS V14.01,2013-01-17 01:32:00,
2013-01-16 19:37:00,36.4,26.9,30.07,SW,229,4.0,17.0,68,0.00,,---,0.01,VWS V14.01,2013-01-17 01:37:00,
2013-01-16 19:42:00,36.5,27.0,30.07,SW,231,4.0,17.0,68,0.00,,---,0.01,VWS V14.01,2013-01-17 01:42:00,
2013-01-16 19:47:00,36.6,27.0,30.07,WSW,247,2.0,17.0,68,0.00,,---,0.01,VWS V14.01,2013-01-17 01:47:00,
2013-01-16 19:52:00,36.7,27.5,30.07,WSW,238,9.0,17.0,69,0.00,,---,0.01,VWS V14.01,2013-01-17 01:52:00,
2013-01-16 19:58:00,36.6,27.4,30.07,WSW,240,7.0,17.0,69,0.00,,---,0.01,VWS V14.01,2013-01-17 01:58:00,
2013-01-16 20:00:00,36.9,28.4,30.09,WSW,248,7.0,17.0,71,0.00,,---,0.01,VWS V14.01,2013-01-17 02:00:00,
2013-01-16 20:03:00,36.6,27.4,30.08,SW,229,8.0,16.0,69,0.00,,---,0.01,VWS V14.01,2013-01-17 02:03:00,
2013-01-16 20:08:00,36.7,27.5,30.08,WSW,249,12.0,17.0,69,0.00,,---,0.01,VWS V14.01,2013-01-17 02:08:00,
2013-01-16 20:13:00,36.6,27.8,30.08,WSW,237,16.0,17.0,70,0.00,,---,0.01,VWS V14.01,2013-01-17 02:13:00,
2013-01-16 20:18:00,36.6,27.8,30.08,WSW,253,11.0,17.0,70,0.00,,---,0.01,VWS V14.01,2013-01-17 02:18:00,
2013-01-16 20:23:00,36.7,27.9,30.09,WSW,241,8.0,17.0,70,0.00,,---,0.01,VWS V14.01,2013-01-17 02:23:00,
2013-01-16 20:28:00,36.7,28.2,30.09,WSW,240,10.0,17.0,71,0.00,,---,0.01,VWS V14.01,2013-01-17 02:28:00,
2013-01-16 20:30:00,36.7,28.5,30.08,SW,231,8.0,13.0,72,0.00,,---,0.01,VWS V14.01,2013-01-17 02:30:00,
2013-01-16 20:33:00,36.8,28.3,30.09,WSW,246,15.0,17.0,71,0.00,,---,0.01,VWS V14.01,2013-01-17 02:33:00,
2013-01-16 20:38:00,36.8,28.3,30.09,WSW,243,13.0,17.0,71,0.00,,---,0.01,VWS V14.01,2013-01-17 02:38:00,
2013-01-16 20:43:00,36.9,28.4,30.09,WSW,240,13.0,17.0,71,0.00,,---,0.01,VWS V14.01,2013-01-17 02:43:00,
2013-01-16 20:48:00,36.9,28.4,30.09,SW,230,8.0,17.0,71,0.00,,---,0.01,VWS V14.01,2013-01-17 02:48:00,
2013-01-16 20:53:00,36.9,28.4,30.09,WSW,237,5.0,17.0,71,0.00,,---,0.01,VWS V14.01,2013-01-17 02:53:00,
2013-01-16 20:58:00,36.9,28.4,30.09,WSW,248,7.0,17.0,71,0.00,,---,0.01,VWS V14.01,2013-01-17 02:58:00,
2013-01-16 21:00:00,36.7,28.5,30.08,WSW,242,5.0,10.0,72,0.00,,---,0.01,VWS V14.01,2013-01-17 03:00:00,
2013-01-16 21:03:00,36.9,28.4,30.09,SW,234,9.0,10.0,71,0.00,,---,0.01,VWS V14.01,2013-01-17 03:03:00,
2013-01-16 21:09:00,36.8,28.3,30.09,SW,236,2.0,10.0,71,0.00,,---,0.01,VWS V14.01,2013-01-17 03:09:00,
2013-01-16 21:14:00,36.9,28.4,30.08,WSW,245,9.0,13.0,71,0.00,,---,0.01,VWS V14.01,2013-01-17 03:14:00,
2013-01-16 21:19:00,36.9,28.4,30.09,SW,236,8.0,13.0,71,0.00,,---,0.01,VWS V14.01,2013-01-17 03:19:00,
2013-01-16 21:24:00,36.8,28.3,30.09,SW,236,5.0,13.0,71,0.00,,---,0.01,VWS V14.01,2013-01-17 03:24:00,
2013-01-16 21:29:00,36.7,28.5,30.09,SW,225,7.0,8.0,72,0.00,,---,0.01,VWS V14.01,2013-01-17 03:29:00,
2013-01-16 21:30:00,36.6,28.8,30.08,SW,233,5.0,9.0,73,0.00,,---,0.01,VWS V14.01,2013-01-17 03:30:00,
2013-01-16 21:34:00,36.7,28.5,30.09,WSW,238,2.0,8.0,72,0.00,,---,0.01,VWS V14.01,2013-01-17 03:34:00,
2013-01-16 21:39:00,36.7,28.5,30.09,SW,236,4.0,8.0,72,0.00,,---,0.01,VWS V14.01,2013-01-17 03:39:00,
2013-01-16 21:44:00,36.6,28.4,30.08,SW,227,3.0,9.0,72,0.00,,---,0.01,VWS V14.01,2013-01-17 03:44:00,
2013-01-16 21:49:00,36.7,28.5,30.08,SW,230,2.0,9.0,72,0.00,,---,0.01,VWS V14.01,2013-01-17 03:49:00,
2013-01-16 21:54:00,36.7,28.5,30.08,WSW,240,3.0,10.0,72,0.00,,---,0.01,VWS V14.01,2013-01-17 03:54:00,
2013-01-16 21:59:00,36.7,28.5,30.08,WSW,239,8.0,8.0,72,0.00,,---,0.01,VWS V14.01,2013-01-17 03:59:00,
2013-01-16 22:00:00,36.3,28.8,30.09,SW,232,6.0,9.0,74,0.00,,---,0.01,VWS V14.01,2013-01-17 04:00:00,
2013-01-16 22:04:00,36.6,28.4,30.08,WSW,246,3.0,8.0,72,0.00,,---,0.01,VWS V14.01,2013-01-17 04:04:00,
2013-01-16 22:09:00,36.6,28.8,30.08,SW,229,5.0,8.0,73,0.00,,---,0.01,VWS V14.01,2013-01-17 04:09:00,
2013-01-16 22:14:00,36.6,28.8,30.08,SW,236,4.0,8.0,73,0.00,,---,0.01,VWS V14.01,2013-01-17 04:14:00,
2013-01-16 22:19:00,36.6,28.8,30.08,WSW,243,6.0,9.0,73,0.00,,---,0.01,VWS V14.01,2013-01-17 04:19:00,
2013-01-16 22:24:00,36.6,28.8,30.08,SW,229,4.0,9.0,73,0.00,,---,0.01,VWS V14.01,2013-01-17 04:24:00,
2013-01-16 22:29:00,36.6,28.8,30.08,WSW,238,3.0,6.0,73,0.00,,---,0.01,VWS V14.01,2013-01-17 04:29:00,
2013-01-16 22:30:00,36.3,29.1,30.11,WSW,240,9.0,11.0,75,0.00,,---,0.01,VWS V14.01,2013-01-17 04:30:00,
2013-01-16 22:35:00,36.5,28.7,30.08,WSW,244,3.0,6.0,73,0.00,,---,0.01,VWS V14.01,2013-01-17 04:35:00,
2013-01-16 22:40:00,36.5,28.7,30.08,SW,225,1.0,7.0,73,0.00,,---,0.01,VWS V14.01,2013-01-17 04:40:00,
2013-01-16 22:45:00,36.5,28.7,30.09,WSW,240,6.0,7.0,73,0.00,,---,0.01,VWS V14.01,2013-01-17 04:45:00,
2013-01-16 22:50:00,36.4,28.9,30.09,WSW,238,9.0,9.0,74,0.00,,---,0.01,VWS V14.01,2013-01-17 04:50:00,
2013-01-16 22:55:00,36.4,28.9,30.09,WSW,242,5.0,9.0,74,0.00,,---,0.01,VWS V14.01,2013-01-17 04:55:00,
2013-01-16 23:00:00,36.3,28.8,30.09,SW,232,2.0,7.0,74,0.00,,---,0.01,VWS V14.01,2013-01-17 05:00:00,
2013-01-16 23:01:00,36.3,28.8,30.09,WSW,245,5.0,8.0,74,0.00,,---,0.01,VWS V14.01,2013-01-17 05:01:00,
2013-01-16 23:03:00,36.2,28.7,30.09,SW,236,4.0,9.0,74,0.00,,---,0.01,VWS V14.01,2013-01-17 05:03:00,
2013-01-16 23:08:00,36.3,29.1,30.09,WSW,237,8.0,11.0,75,0.00,,---,0.01,VWS V14.01,2013-01-17 05:08:00,
2013-01-16 23:13:00,36.3,29.1,30.10,SW,236,8.0,11.0,75,0.00,,---,0.01,VWS V14.01,2013-01-17 05:13:00,
2013-01-16 23:18:00,36.3,29.1,30.10,WSW,244,8.0,11.0,75,0.00,,---,0.01,VWS V14.01,2013-01-17 05:18:00,
2013-01-16 23:23:00,36.3,29.1,30.10,WSW,245,11.0,11.0,75,0.00,,---,0.01,VWS V14.01,2013-01-17 05:23:00,
2013-01-16 23:28:00,36.3,29.1,30.11,WSW,251,7.0,11.0,75,0.00,,---,0.01,VWS V14.01,2013-01-17 05:28:00,
2013-01-16 23:30:00,34.0,28.8,30.13,WSW,252,7.0,10.0,81,0.00,,---,0.00,VWS V14.01,2013-01-17 05:30:00,
2013-01-16 23:33:00,36.2,29.4,30.11,WSW,249,5.0,9.0,76,0.00,,---,0.01,VWS V14.01,2013-01-17 05:33:00,
2013-01-16 23:38:00,36.0,29.2,30.11,West,259,4.0,9.0,76,0.00,,---,0.01,VWS V14.01,2013-01-17 05:38:00,
2013-01-16 23:43:00,35.8,29.3,30.11,WSW,246,3.0,9.0,77,0.00,,---,0.01,VWS V14.01,2013-01-17 05:43:00,
2013-01-16 23:48:00,35.7,29.2,30.11,WSW,242,2.0,9.0,77,0.00,,---,0.01,VWS V14.01,2013-01-17 05:48:00,
2013-01-16 23:53:00,35.4,29.2,30.12,WSW,256,4.0,9.0,78,0.00,,---,0.01,VWS V14.01,2013-01-17 05:53:00,
2013-01-16 23:58:00,35.2,29.4,30.12,WSW,257,9.0,9.0,79,0.00,,---,0.01,VWS V14.01,2013-01-17 05:58:00,